This is the latest recevied weather packets stored in our database for station/object KK4XZ. If no packets are shown the sender has not sent any weather packets the latest 10 day(s).
| Time | Temp. | Humidity | Pressure | Rain* | Wind** | Luminosity | Snow |
|---|---|---|---|---|---|---|---|
| 1777833325 | 20.56° C | 37% | 1018.2 hPa | 0 mm | - | - | - |
| 1777832720 | 20.56° C | 37% | 1018.2 hPa | 0 mm | - | - | - |
| 1777832135 | 20° C | 37% | 1018.5 hPa | 0 mm | - | - | - |
| 1777831531 | 20° C | 39% | 1018.5 hPa | 0 mm | - | - | - |
| 1777830925 | 20° C | 38% | 1018.7 hPa | 0 mm | - | - | - |
| 1777830320 | 20° C | 38% | 1018.8 hPa | 0 mm | - | - | - |
| 1777829736 | 19.44° C | 39% | 1018.8 hPa | 0 mm | - | - | - |
| 1777829131 | 19.44° C | 39% | 1018.7 hPa | 0 mm | - | - | - |
| 1777828525 | 18.89° C | 37% | 1018.7 hPa | 0 mm | - | - | - |
| 1777827921 | 18.89° C | 39% | 1018.9 hPa | 0 mm | - | - | - |
| 1777827336 | 18.33° C | 41% | 1019 hPa | 0 mm | - | - | - |
| 1777826736 | 18.33° C | 40% | 1019.3 hPa | 0 mm | - | - | - |
| 1777826126 | 18.89° C | 40% | 1019.4 hPa | 0 mm | - | - | - |
| 1777825521 | 18.33° C | 40% | 1019.5 hPa | 0 mm | - | - | - |
| 1777824936 | 18.33° C | 40% | 1019.7 hPa | 0 mm | - | - | - |
| 1777824332 | 17.78° C | 40% | 1019.7 hPa | 0 mm | - | - | - |
| 1777823727 | 17.78° C | 42% | 1019.7 hPa | 0 mm | - | - | - |
| 1777823122 | 18.33° C | 43% | 1019.8 hPa | 0 mm | - | - | - |
| 1777822517 | 17.78° C | 42% | 1019.9 hPa | 0 mm | - | - | - |
| 1777821932 | 17.22° C | 42% | 1019.9 hPa | 0 mm | - | - | - |
| 1777821327 | 17.22° C | 43% | 1019.9 hPa | 0 mm | - | - | - |
| 1777820722 | 16.11° C | 42% | 1019.9 hPa | 0 mm | - | - | - |
| 1777820118 | 16.67° C | 43% | 1019.6 hPa | 0 mm | - | - | - |
| 1777819533 | 16.11° C | 42% | 1019.6 hPa | 0 mm | - | - | - |
| 1777818928 | 15.56° C | 42% | 1019.5 hPa | 0 mm | - | - | - |
* Rain latest hour (hover to see other rain measurements)
** Current wind speed in m/s (hover to see current wind gust speed)